Wind_Speed
5 7 9 9 10 11 13 13 15 17 19 21 23 25 26 28 29 29 29 29 31 32 33 33 34 34 34 34 34 34 34 33 33 33 34 35 35 35 36 36 37 38 38 39
4 5 7 9 9 10 11 12 13 14 17 19 21 21 24 26 27 27 28 29 29 31 32 33 33 34 35 35 35 35 35 36 35 35 35 36 37 37 37 38 38 39 40 40
5 4 5 7 9 10 11 12 12 13 14 16 19 20 22 24 25 25 25 26 27 27 29 31 32 33 34 35 36 36 36 36 37 37 37 37 38 38 39 39 39 40 40 41
5 5 5 6 8 9 10 11 11 12 13 14 16 18 19 20 23 24 24 25 26 26 27 27 29 31 32 32 34 34 34 35 36 37 38 38 38 38 39 40 40 41 42 43
6 5 5 5 6 8 9 10 11 11 12 14 14 16 15 17 19 21 22 23 24 25 25 25 26 28 30 31 31 32 33 34 35 37 38 38 38 38 39 40 41 41 42 43
6 6 6 6 7 8 9 10 11 11 12 14 14 15 15 15 17 18 20 21 22 22 23 24 25 26 28 29 30 31 32 33 35 36 36 37 38 38 39 40 41 42 43 43
6 6 6 6 7 8 9 10 11 12 12 13 13 14 14 14 15 17 18 19 20 20 21 22 24 25 27 29 30 31 32 33 34 35 35 36 37 39 40 41 41 42 44 44
6 6 6 6 7 8 9 9 11 12 13 13 12 13 14 14 15 16 17 18 19 20 22 23 24 25 27 28 29 31 32 33 34 35 36 37 38 40 40 42 43 44 44 45
6 6 7 7 7 8 8 9 10 12 13 14 14 15 15 16 16 16 17 19 19 20 22 23 24 25 26 27 28 29 31 32 34 35 36 37 38 40 41 42 43 43 44 45
7 7 7 8 8 8 9 9 10 12 14 15 16 16 16 16 16 16 16 18 19 21 22 22 23 24 25 26 27 28 28 30 32 34 36 37 38 39 41 42 42 43 44 45
8 8 8 9 10 10 10 10 11 12 14 16 17 16 17 17 18 18 17 17 18 19 21 22 24 24 24 25 26 27 29 30 31 33 35 36 38 40 41 41 42 42 43 43
9 9 10 10 11 11 11 12 12 14 15 16 18 17 17 18 19 19 19 19 19 19 19 19 20 22 23 25 25 27 28 30 31 32 33 34 36 38 39 41 42 43 44 46
10 10 10 10 11 12 12 12 13 15 15 15 16 16 17 18 19 19 19 18 18 17 17 18 19 20 22 24 25 27 28 30 31 32 33 34 35 37 39 40 42 43 44 46
11 11 11 12 12 12 12 13 14 15 16 16 16 16 16 17 18 17 17 17 17 18 18 19 21 22 24 25 26 28 29 31 32 33 34 35 36 37 38 40 41 43 45 46
12 12 12 12 13 13 14 14 15 16 16 17 16 16 16 17 18 18 18 18 19 20 20 21 22 24 25 26 28 29 30 32 32 33 34 36 37 38 39 41 42 43 44 45
15 15 14 14 15 15 15 15 16 17 17 18 18 17 17 18 19 20 20 20 21 21 22 23 24 26 27 28 29 30 31 32 33 34 35 36 37 38 40 40 41 42 43 44
18 18 18 17 18 18 18 17 18 18 19 19 19 19 19 20 21 22 22 22 23 23 24 24 25 26 28 28 29 30 31 33 34 35 36 37 38 39 40 41 41 42 43 44
21 22 22 21 21 21 20 20 20 20 20 21 21 21 22 23 24 25 25 25 25 25 26 26 27 28 29 29 30 31 32 33 35 36 37 38 39 39 39 40 42 43 44 44
24 24 25 24 24 23 22 23 23 23 22 23 23 24 24 25 25 25 26 26 27 27 28 28 29 30 30 31 31 31 32 33 35 36 37 38 38 39 40 41 43 44 45 45
26 27 27 27 27 27 25 25 26 26 25 25 25 26 26 26 26 26 26 27 27 28 29 30 30 30 31 31 31 32 32 33 34 35 36 37 38 39 41 43 44 45 45 44
28 29 29 29 30 28 28 28 28 28 28 28 28 28 27 27 28 28 27 28 28 29 29 30 30 30 31 32 32 33 34 34 35 36 37 38 39 41 43 44 45 46 45 45
29 30 30 30 31 29 30 31 31 31 30 30 30 29 29 29 29 29 29 29 29 29 30 31 31 31 32 33 33 34 35 36 37 38 39 40 41 42 44 45 46 46 45 46
30 31 31 31 30 31 32 32 32 32 32 31 31 31 30 30 30 30 30 30 30 30 30 31 31 32 33 34 34 35 36 37 38 39 40 41 42 44 45 45 46 46 46 47
32 32 32 31 30 31 33 33 32 32 32 31 31 31 31 31 31 31 30 31 31 31 31 32 32 33 34 35 35 36 37 38 39 40 41 42 43 44 45 46 47 47 48 48
33 33 32 31 30 32 33 33 33 32 32 32 32 32 32 33 33 32 32 33 33 33 34 34 34 35 36 36 37 38 39 40 40 41 43 44 45 45 46 47 48 49 49 50
33 33 33 32 32 34 34 34 34 34 33 33 33 33 33 33 34 34 34 34 34 35 35 35 36 37 38 38 39 40 40 42 43 44 46 46 46 47 48 49 49 49 49 49
Wind_Direction
255 246 244 245 247 247 248 247 243 245 247 247 245 246 246 245 244 247 249 250 250 251 252 253 254 255 256 257 258 260 262 264 266 268 270 272 273 275 276 276 277 278 278 279
273 259 252 251 254 254 254 255 255 254 251 252 250 249 246 246 248 250 252 254 255 253 253 254 255 256 257 259 259 261 263 265 267 269 271 272 273 275 277 277 277 278 279 280
288 284 270 260 258 258 259 263 264 265 262 261 260 257 254 251 251 254 257 258 258 256 254 253 255 257 259 260 261 263 265 266 267 268 270 272 273 274 276 278 279 281 282 283
299 291 284 271 263 263 265 267 271 271 267 268 268 268 262 258 254 256 260 262 262 261 259 257 256 258 259 261 262 264 266 268 269 270 271 273 274 275 277 279 281 282 283 284
301 293 285 278 271 270 272 272 273 276 273 273 274 273 270 266 264 262 263 265 266 265 265 264 262 261 260 259 261 263 265 268 271 272 273 273 275 277 279 280 282 283 284 285
318 308 294 287 280 275 276 278 280 283 281 279 281 281 278 272 270 270 269 268 268 267 267 267 266 265 266 264 264 265 267 269 271 272 273 275 277 279 281 282 282 283 284 286
326 319 308 298 287 278 280 283 287 290 288 286 285 284 285 281 275 273 273 271 271 271 270 269 270 270 269 270 270 269 270 271 273 274 275 277 279 280 280 282 283 284 286 286
329 322 317 309 304 294 289 290 291 292 295 290 286 285 289 295 287 280 278 278 273 273 272 272 274 274 275 275 275 273 272 273 274 276 277 278 279 279 281 282 283 284 285 287
330 328 320 314 311 304 300 294 293 291 293 291 290 291 291 296 297 291 285 284 281 279 277 276 276 277 278 279 280 279 277 277 277 277 279 280 281 281 282 283 284 284 284 286
319 320 321 313 311 307 303 299 297 297 298 296 294 296 296 298 298 297 294 289 286 284 281 278 277 278 280 281 282 282 282 281 281 281 281 281 282 283 284 285 284 284 286 288
311 310 313 311 313 311 305 299 299 301 302 300 299 299 299 299 298 296 295 293 288 287 285 282 281 281 282 282 283 284 284 284 284 284 284 284 285 284 285 285 286 286 287 288
306 307 310 311 311 312 308 300 298 300 303 303 301 303 301 300 299 297 294 292 292 294 292 289 287 286 286 286 286 286 286 287 288 289 289 289 289 288 287 287 287 287 288 289
304 304 307 309 308 309 309 305 301 302 303 303 304 305 306 301 300 300 299 295 294 296 294 293 294 293 291 290 289 289 289 290 290 291 291 291 291 290 291 290 290 289 290 291
305 305 307 309 311 310 309 308 305 303 304 303 304 304 305 305 305 305 302 300 299 298 295 295 295 294 294 294 293 293 292 292 291 292 292 292 293 293 293 294 294 293 292 292
306 305 305 305 306 310 311 308 307 305 305 304 303 304 304 304 304 305 305 302 299 298 297 295 295 295 296 296 296 296 296 295 294 294 294 294 294 294 294 295 296 296 296 295
300 300 302 301 300 303 306 306 306 304 303 301 299 298 299 299 300 302 303 303 300 300 299 297 295 296 297 297 297 297 297 297 297 297 297 297 297 297 297 298 298 299 299 297
294 294 295 297 295 297 300 301 301 301 302 301 299 299 297 297 298 301 301 299 297 298 298 297 297 296 297 297 298 298 299 299 299 299 299 299 299 298 299 299 300 300 300 300
290 290 291 293 293 293 298 298 298 298 299 300 300 300 299 299 299 300 299 297 296 297 297 297 297 298 299 299 298 299 299 300 300 300 300 300 300 300 300 301 302 302 302 301
287 288 288 290 291 293 293 295 296 296 296 297 298 298 298 300 301 302 300 297 296 296 297 296 297 298 299 300 300 300 301 301 300 300 300 300 301 301 302 303 303 303 303 302
284 285 286 288 289 291 293 291 292 293 293 295 296 297 298 300 301 302 301 300 299 298 298 298 298 299 299 299 300 301 301 302 302 301 302 302 301 302 302 303 304 304 303 302
283 284 285 286 287 290 291 290 290 290 292 292 293 295 296 298 299 300 300 299 299 299 299 298 299 300 299 299 300 301 301 301 301 302 302 302 302 303 303 304 305 305 304 303
283 284 285 285 287 290 289 288 288 288 289 290 291 292 293 295 296 297 298 299 299 299 299 299 299 300 300 300 301 301 301 301 301 302 302 303 303 303 304 305 306 306 305 305
283 283 283 286 288 288 287 287 287 286 287 289 290 291 292 293 293 295 296 297 298 299 299 300 300 300 300 300 301 301 301 301 302 303 303 303 304 305 305 306 306 306 305 305
281 282 283 285 287 285 285 287 288 288 287 288 288 288 289 291 292 293 294 296 299 300 300 301 301 301 300 300 300 300 300 301 302 303 303 304 304 305 305 306 306 305 305 304
281 283 283 284 285 282 283 286 287 288 287 286 285 285 287 289 291 292 293 295 297 299 300 301 302 302 302 301 301 301 302 302 302 303 303 304 304 304 305 306 306 306 305 305
281 282 281 282 283 282 284 286 287 287 287 285 285 285 286 287 288 290 293 295 296 297 298 300 301 302 303 302 302 301 301 301 302 303 303 303 303 304 305 306 306 306 306 305
Height
5739 5740 5738 5738 5739 5739 5739 5740 5741 5742 5742 5743 5744 5745 5747 5748 5749 5751 5752 5754 5755 5757 5758 5761 5763 5765 5766 5767 5769 5770 5771 5771 5771 5771 5771 5771 5770 5769 5768 5767 5765 5764 5762 5761
5738 5737 5736 5736 5736 5736 5736 5737 5737 5738 5738 5738 5739 5740 5742 5742 5744 5745 5746 5747 5748 5749 5751 5752 5755 5756 5758 5759 5761 5762 5763 5763 5763 5763 5763 5762 5761 5760 5759 5758 5756 5755 5753 5751
5735 5735 5734 5734 5734 5734 5734 5735 5735 5735 5734 5734 5734 5735 5736 5737 5738 5739 5740 5740 5741 5742 5744 5745 5746 5748 5750 5752 5753 5753 5754 5754 5755 5755 5754 5753 5752 5751 5750 5749 5747 5746 5744 5741
5733 5732 5732 5732 5732 5732 5732 5732 5732 5731 5731 5730 5731 5730 5732 5732 5733 5734 5734 5735 5735 5736 5737 5738 5739 5741 5742 5743 5744 5745 5745 5746 5746 5746 5746 5744 5743 5742 5741 5740 5738 5736 5734 5731
5732 5731 5731 5731 5730 5730 5730 5730 5730 5729 5728 5728 5727 5726 5728 5727 5728 5729 5729 5729 5730 5730 5731 5732 5733 5734 5735 5736 5736 5737 5737 5737 5737 5737 5736 5735 5734 5732 5731 5730 5728 5726 5723 5721
5731 5730 5729 5729 5728 5728 5728 5728 5728 5727 5725 5725 5724 5723 5724 5724 5724 5723 5724 5724 5724 5725 5725 5726 5726 5727 5728 5728 5728 5729 5729 5729 5728 5727 5726 5725 5724 5723 5721 5719 5718 5715 5713 5710
5731 5730 5728 5727 5727 5727 5727 5727 5726 5724 5722 5722 5721 5720 5721 5720 5719 5719 5718 5718 5718 5719 5719 5720 5720 5720 5721 5721 5721 5721 5721 5721 5720 5719 5718 5716 5715 5713 5711 5709 5707 5705 5702 5700
5730 5729 5728 5726 5726 5725 5725 5724 5724 5722 5720 5719 5719 5717 5718 5717 5715 5714 5714 5713 5712 5713 5713 5713 5714 5714 5714 5713 5713 5713 5713 5712 5711 5710 5709 5707 5705 5703 5701 5699 5697 5694 5691 5689
5728 5728 5727 5726 5724 5724 5722 5722 5721 5720 5718 5717 5715 5715 5714 5713 5711 5710 5709 5708 5707 5707 5706 5707 5707 5707 5707 5706 5706 5705 5705 5704 5703 5701 5700 5698 5696 5693 5691 5689 5686 5683 5680 5677
5727 5727 5726 5724 5723 5722 5721 5719 5718 5717 5715 5713 5713 5712 5711 5709 5707 5706 5704 5703 5702 5701 5701 5700 5700 5700 5700 5699 5699 5698 5697 5695 5694 5692 5691 5688 5686 5683 5680 5678 5675 5672 5669 5666
5726 5726 5725 5723 5722 5720 5719 5718 5716 5714 5712 5711 5709 5711 5707 5705 5703 5701 5700 5698 5697 5697 5695 5695 5694 5694 5693 5692 5691 5690 5689 5687 5685 5683 5681 5678 5675 5673 5670 5667 5664 5661 5658 5655
5725 5724 5723 5722 5720 5718 5717 5715 5714 5712 5710 5708 5706 5709 5703 5701 5698 5697 5695 5694 5692 5691 5690 5689 5688 5688 5687 5685 5684 5682 5681 5679 5677 5674 5672 5669 5666 5663 5660 5657 5654 5650 5647 5643
5723 5722 5721 5720 5720 5717 5715 5713 5711 5709 5707 5705 5703 5705 5700 5697 5695 5693 5691 5689 5688 5686 5685 5684 5683 5682 5680 5679 5677 5675 5673 5671 5668 5666 5663 5660 5657 5653 5650 5646 5643 5639 5636 5632
5721 5720 5720 5719 5716 5714 5712 5710 5708 5706 5704 5702 5701 5699 5697 5694 5691 5689 5687 5685 5683 5682 5680 5679 5677 5676 5674 5672 5670 5668 5665 5663 5660 5657 5654 5651 5648 5644 5640 5636 5632 5628 5624 5620
5718 5718 5716 5715 5713 5711 5709 5708 5705 5703 5700 5699 5697 5695 5693 5690 5687 5685 5683 5681 5679 5677 5675 5673 5672 5670 5667 5665 5663 5660 5658 5655 5652 5649 5646 5642 5638 5635 5631 5626 5622 5618 5613 5609
5715 5714 5713 5712 5709 5707 5706 5704 5702 5699 5697 5694 5692 5691 5688 5685 5683 5681 5678 5676 5674 5672 5669 5667 5665 5663 5660 5658 5655 5653 5650 5647 5644 5640 5637 5633 5629 5625 5621 5616 5612 5607 5602 5597
5711 5710 5709 5708 5705 5703 5703 5701 5698 5695 5693 5690 5688 5687 5683 5681 5678 5675 5673 5671 5668 5666 5663 5660 5658 5655 5653 5650 5647 5645 5642 5638 5635 5631 5628 5624 5620 5615 5611 5606 5602 5597 5592 5587
5706 5705 5703 5702 5701 5699 5700 5696 5693 5690 5688 5685 5683 5680 5678 5675 5672 5670 5667 5665 5662 5659 5657 5654 5651 5648 5645 5642 5639 5636 5633 5630 5626 5622 5618 5614 5610 5606 5601 5596 5591 5586 5581 5576
5701 5699 5697 5696 5693 5693 5693 5690 5686 5684 5683 5680 5677 5674 5672 5669 5667 5664 5661 5658 5655 5652 5650 5647 5644 5641 5638 5634 5631 5628 5625 5621 5617 5613 5609 5605 5600 5596 5592 5587 5581 5576 5570 5565
5694 5692 5691 5689 5686 5685 5687 5683 5679 5678 5676 5674 5671 5668 5665 5663 5661 5658 5654 5651 5648 5645 5642 5639 5636 5633 5630 5626 5623 5620 5616 5613 5609 5604 5600 5595 5591 5586 5581 5576 5571 5565 5559 5554
5686 5684 5683 5681 5678 5678 5678 5674 5672 5671 5670 5666 5663 5661 5658 5656 5654 5651 5647 5644 5641 5638 5634 5631 5628 5625 5622 5618 5615 5611 5608 5604 5600 5595 5591 5586 5581 5576 5571 5566 5560 5554 5549 5543
5678 5676 5675 5673 5671 5672 5668 5665 5664 5662 5660 5657 5655 5653 5651 5648 5646 5643 5640 5637 5633 5630 5627 5624 5620 5617 5613 5610 5606 5602 5599 5595 5590 5586 5581 5577 5571 5566 5560 5555 5549 5543 5537 5532
5669 5669 5666 5666 5666 5663 5659 5656 5654 5653 5651 5649 5647 5645 5643 5640 5637 5635 5632 5629 5626 5623 5619 5616 5612 5609 5605 5601 5597 5593 5589 5585 5581 5576 5571 5566 5561 5555 5549 5544 5538 5532 5526 5520
5660 5659 5657 5656 5656 5653 5649 5647 5645 5643 5642 5640 5638 5636 5634 5631 5629 5627 5624 5621 5618 5614 5611 5607 5604 5600 5596 5592 5588 5584 5579 5575 5571 5566 5561 5556 5550 5544 5538 5533 5526 5520 5514 5508
5651 5649 5647 5646 5646 5642 5640 5638 5636 5634 5632 5630 5629 5627 5625 5622 5620 5618 5615 5612 5609 5606 5602 5599 5595 5591 5587 5582 5578 5574 5569 5565 5560 5555 5550 5545 5539 5533 5527 5521 5515 5508 5502 5495
5643 5640 5638 5637 5636 5632 5631 5629 5627 5625 5623 5621 5619 5617 5615 5613 5611 5608 5606 5603 5600 5597 5593 5589 5585 5581 5577 5572 5568 5564 5559 5554 5549 5544 5539 5533 5527 5522 5516 5509 5503 5496 5490 5483